Location: Shepherdstown, WV
(39.4326°N, 77.8042°W)
Time: 06:06:00
(UTC-04:00)

Vanguard 1 - Pass Details

Date: 05 August 2021
Orbit: 652 x 3831 km, 34.3° (Epoch: 24 September)

Event Time Altitude Azimuth Distance (km) Brightness Sun altitude
Rises 14:54:39 0° 271° (W) 3,441 13.2 59.0°
Reaches altitude 10° 14:56:53 10° 262° (W) 2,718 12.9 58.6°
Maximum altitude 15:02:53 39° 195° (SSW) 1,925 12.8 57.7°
Drops below altitude 10° 15:13:02 10° 133° (SE) 4,593 13.5 56.1°
Sets 15:18:05 0° 127° (SE) 6,151 14.0 55.3°
